Location: Besigheim
(48.9980°N, 9.1427°E)
Time: 16:00:30
(UTC+00:00)

SL-24 R/B - RUBIN 2 - Pass Details

Date: 18 February 2026
Orbit: 603 x 984 km, 64.6° (Epoch: 8 March)

Event Time Altitude Azimuth Distance (km) Brightness Sun altitude
Exits shadow 03:04:30 15° 16° (NNE) 1,719 6.2 -33.4°
Drops below altitude 10° 03:05:26 10° 24° (NNE) 2,001 6.7 -33.2°
Sets 03:07:56 0° 37° (NE) 2,884 7.8 -32.8°
